Regional Weather Roundup
Issued by NWS Upton, NY

Current Version | Previous Version | Text Only | Print | Product List | Glossary On
Versions: 1 2 3 4 5 6 7 8 9 10 11 12 13 14 15 16 17 18 19 20 21 22 23 24 25 26 27 28 29 30 31 32 33 34 35 36 37 38 39 40 41 42 43 44 45 46 47 48 49 50
000 ASUS41 KOKX 020904 RWROKX REGIONAL WEATHER ROUNDUP NATIONAL WEATHER SERVICE NEW YORK NY 500 AM EDT SUN AUG 02 2015 NOTE: "FAIR" INDICATES FEW OR NO CLOUDS BELOW 12,000 FEET WITH NO SIGNIFICANT WEATHER AND/OR OBSTRUCTIONS TO VISIBILITY. NYZ071-072-176-178-NJZ106-104-021000- NEW YORK CITY METRO AREA CITY SKY/WX TMP DP RH WIND PRES REMARKS CENTRAL PARK CLEAR 74 56 53 CALM 29.90S LAGUARDIA APRT PTCLDY 74 60 61 NW8 29.86S KENNEDY INTL PTCLDY 72 57 59 CALM 29.88S NEWARK/LIBERTY PTCLDY 71 58 63 W3 29.87S BRNX BOT. GARD N/A 72 55 56 NW2 29.89R TETERBORO CLEAR 69 56 62 CALM 29.87S $$ NYZ177-179-078>081-021000- LONG ISLAND NEW YORK CITY SKY/WX TMP DP RH WIND PRES REMARKS FARMINGDALE CLEAR 69 58 67 CALM 29.87S ISLIP CLEAR 65 59 81 CALM 29.85S SHIRLEY CLEAR 62 58 86 CALM 29.87S WESTHAMPTON CLEAR 58 55 90 CALM 29.88S MONTAUK POINT N/A 71 63 75 NW3 29.87S $$ NYZ052-065-067-021000- HUDSON VALLEY CITY SKY/WX TMP DP RH WIND PRES REMARKS WHITE PLAINS CLEAR 65 59 81 NW3 29.88R NEWBURGH CLEAR 61 57 88 CALM 29.90 MONTGOMERY CLEAR 58 56 93 SW3 29.89S POUGHKEEPSIE CLEAR 59 56 89 CALM 29.87S ALBANY CLEAR 60 55 83 CALM 29.87S $$ NJZ001-105-106-008-010-013-015-019>022-104-021000- NEW JERSEY CITY SKY/WX TMP DP RH WIND PRES REMARKS NEWARK/LIBERTY PTCLDY 71 58 63 W3 29.87S TETERBORO CLEAR 69 56 62 CALM 29.87S CALDWELL CLEAR 63 57 81 CALM 29.89S MORRISTOWN CLEAR 59 55 88 CALM 29.89S SOMERVILLE CLEAR 60 57 89 CALM 29.88S SUSSEX CLEAR 56 54 93 CALM 29.91R ANDOVER N/A 58 57 97 CALM 29.91S TRENTON CLEAR 66 59 78 NW7 29.89S MILLVILLE CLEAR 66 64 93 CALM 29.89S ATLANTIC CITY CLEAR 67 65 93 NW3 29.89R WRIGHTSTOWN NOT AVBL TOMS RIVER N/A 59 55 88 CALM 29.89R BELMAR CLEAR 64 55 72 NW5 29.88S $$ PAZ047>061-062-071-021000- EASTERN PENNSYLVANIA CITY SKY/WX TMP DP RH WIND PRES REMARKS PHILADELPHIA PTCLDY 72 58 61 NW7 29.90S ALLENTOWN CLEAR 62 57 83 W5 29.91R SCRANTON CLEAR 58 55 90 E3 29.93S $$ CTZ002-004>006-009-010-012-RIZ004-006-007-MAZ004-011-015-021000- SOUTHERN NEW ENGLAND IN CT CITY SKY/WX TMP DP RH WIND PRES REMARKS BRADLEY INTL CLEAR 60 56 86 CALM 29.86S HARTFORD FOG 63 62 97 CALM 29.86S VSB 1/2 DANBURY CLEAR 58 54 86 SW3 29.90R WTRBRY/OXFORD CLEAR 59 50 72 N3 29.90S BRIDGEPORT CLEAR 68 61 78 CALM 29.87R MERIDEN CLEAR 59 56 89 CALM 29.87S NEW HAVEN CLEAR 62 59 90 CALM 29.87S CHESTER FAIR 63 57 82 CALM 29.88S GROTON CLEAR 62 60 93 N3 29.86R WILLIMANTIC CLEAR 60 58 92 CALM 29.87S IN RI CITY SKY/WX TMP DP RH WIND PRES REMARKS PROVIDENCE CLEAR 65 60 84 W3 29.86R BLOCK ISLAND N/A 66 63 88 NW6 29.87R WESTERLY CLEAR 62 59 90 CALM 29.87R IN MA CITY SKY/WX TMP DP RH WIND PRES REMARKS BOSTON PTCLDY 69 53 56 W10 29.83R WORCESTER CLEAR 61 51 70 W8 29.88S WESTFIELD CLEAR 57 55 93 CALM 29.87S PROVINCETOWN CLEAR 68 55 64 W7 29.84R NANTUCKET PTCLDY 72 67 84 N8 29.84R $$ ANZ330-335-338-340-345-350-353-355-021000- COASTAL MARINE OBSERVATIONS STATION/POSITION TIME SKY/WX TEMP WIND PRES VSBY WAVE AIR SEA DIR/SP/G HT/PER (UTC) (F) (DEG/KT/KT) (MB) (MI) (FT/S) NY HARB ENTRANCE 0750 74 77 290/ 6/ 8 1011.2 2/ 9 4S FIRE IS NOT AVBL 20S FIRE ISLAND 0750 76 76 310/ 8/ 10 1011.0 4/ 8 GREAT SOUTH BAY 0800 72 80 360/ 4/ 8 N/A 23SW MTP 0850 73 74 340/ 8/ 8 1010.8 3/ 8 HUDSON CANYON NOT AVBL KINGS POINT 0800 72 70 CALM / 1 1010.8 EXECUTION ROCKS 0800 71 CALM / 2 N/A CENTRAL LI SOUND NOT AVBL EASTERN LI SOUND 0800 68 67 290/ 6/ 6 N/A ROBBINS REEF 0800 74 280/ 6/ 7 1010.4 $$ >>>>>>>>>>>>>>>>>>>>>>>>>>>> KEY <<<<<<<<<<<<<<<<<<<<<<<<<<< > < > SKY/WX - SKY CONDITION/PRESENT WEATHER < > TMP - TEMPERATURE IN FAHRENHEIT < > DP - DEWPOINT IN FAHRENHEIT < > RH - RELATIVE HUMIDITY IN PERCENT < > WIND - DIRECTION AND SPEED IN MPH < > PRES - MEAN SEA LEVEL PRESSURE IN INCHES OF HG < > WCI - WIND CHILL INDEX < > VSB - VISIBILITY IN MILES < > HX - HEAT INDEX < > TC - TEMPERATURE IN CELSIUS < > VRB - VARIABLE WIND DIRECTION < > < >>>>>>>>>>>>>>>>>>>>>>>>>>>> KEY <<<<<<<<<<<<<<<<<<<<<<<<<<<

USA.gov is the U.S. government's official web portal to all federal, state and local government web resources and services.